Location: Tel Aviv
(32.0670°N, 34.7670°E)
Time: 06:15:26
(UTC+03:00)

DUCHIFAT 1 - Visible Passes

Search period start: 17 June 2024 00:00
Search period end: 27 June 2024 00:00
Orbit: 534 x 555 km, 98.1° (Epoch: 16 June)

Date Brightness Start Highest point End Pass type
(mag) Time Alt. Az. Time Alt. Az. Time Alt. Az.
17 Jun ? 04:19:25 10° E 04:19:45 10° E 04:20:04 10° E visible
25 Jun ? 05:02:03 10° NNE 05:05:42 38° E 05:09:20 10° SSE visible
26 Jun ? 04:55:59 10° NE 04:59:28 31° E 05:02:57 10° SSE visible
